Location: Baptist Memorial Hospital
(34.4976°N, 89.0284°W)
Time: 10:37:12
(UTC+00:00)

CZ-2D R/B - Pass Details

Date: 29 October 2020
Orbit: 521 x 537 km, 97.4° (Epoch: 25 November)

Event Time Altitude Azimuth Distance (km) Brightness Sun altitude
Rises 23:39:27 0° 139° (SE) 2,649 6.5 -7.7°
Reaches altitude 10° 23:41:52 10° 124° (SE) 1,762 5.5 -8.2°
Maximum altitude 23:44:52 23° 72° (ENE) 1,159 4.4 -8.8°
Drops below altitude 10° 23:47:53 10° 19° (NNE) 1,766 5.6 -9.4°
Sets 23:50:18 0° 5° (N) 2,657 6.7 -9.9°
